User: anonymous   Login
Location: Unspecified
(0.0000°N, 0.0000°E)
Time: 20:23:34
(UTC+00:00)
Language:

STARLINK-3595 - Orbit

View from above orbital plane
View from above orbital plane
View from above satellite
View from above satellite

Ground track
Ground track

The orbit is defined by the following mean orbital elements,

1 51894U          26145.04901698 +.00000000 +00000-0 -32538-4 0 00001
2 51894  53.2131  16.3282 0001188  81.7435 278.3692 15.08834843    03
Epoch (UTC): 25 May 2026 01:10:35
Eccentricity: 0.0001188
inclination: 53.2131°
perigee height: 539 km
apogee height: 541 km
right ascension of ascending node: 16.3282°
argument of perigee: 81.7435°
revolutions per day: 15.08834843
mean anomaly at epoch: 278.3692°

The dashed part of the orbit path shows where the satellite is in the earth's shadow,  

DLR